Location: Cheyres
(46.8153°N, 6.7877°E)
Time: 03:31:19
(UTC+00:00)

SeaSat 1 - Pass Details

Date: 11 May 2021
Orbit: 744 x 747 km, 108.0° (Epoch: 18 June)

Event Time Altitude Azimuth Distance (km) Brightness Sun altitude
Rises 23:02:12 0° 36° (NE) 3,200 6.4 -24.8°
Reaches altitude 10° 23:04:42 10° 46° (NE) 2,272 5.4 -24.8°
Enters shadow 23:08:32 31° 95° (E) 1,289 3.5 -24.9°
